GW3691 Weather Reports


Display with metric or nautical units.
time (UTC)temp
F
wind
direction
speed
MPH
gust
MPH
rain 1hr
in
rain 24hr
in
rain mn
in
humidity
%
barometer
mb
20260507054252 71 167 0.0 0.0 0.00 0.00 0.00 77 1019.6
20260507053750 71 166 0.0 0.0 0.00 0.00 0.00 75 1019.8
20260507053247 71 166 0.0 0.0 0.00 0.00 0.00 75 1019.8
20260507052746 72 176 0.0 0.0 0.00 0.00 0.00 74 1019.7
20260507052242 72 175 0.0 0.0 0.00 0.00 0.00 74 1019.5
20260507051741 72 166 0.0 0.0 0.00 0.00 0.00 73 1019.7
20260507051237 72 170 0.0 0.0 0.00 0.00 0.00 73 1019.8
20260507050733 72 168 0.0 1.0 0.00 0.00 0.00 73 1019.6
20260507050231 72 166 0.0 0.0 0.00 0.00 0.00 73 1019.7
20260507045727 72 167 0.0 0.0 0.00 0.00 0.00 73 1019.8
20260507045224 73 165 0.0 1.0 0.00 0.00 0.00 72 1019.8
20260507044721 72 165 0.0 0.0 0.00 0.00 0.00 72 1019.9
20260507044217 72 158 1.0 1.0 0.00 0.00 0.00 72 1019.6
20260507043714 72 172 0.0 0.0 0.00 0.00 0.00 72 1019.6
20260507043210 73 171 0.0 0.0 0.00 0.00 0.00 72 1019.7
20260507042707 73 165 0.0 1.0 0.00 0.00 0.00 72 1019.6
20260507042202 73 166 0.0 0.0 0.00 0.00 0.00 72 1019.9
20260507041659 73 161 0.0 0.0 0.00 0.00 0.00 72 1019.7
20260507041156 72 170 0.0 0.0 0.00 0.00 0.00 72 1019.8
20260507040653 72 168 0.0 0.0 0.00 0.00 0.00 73 1019.8
20260507040149 72 165 0.0 0.0 0.00 0.00 0.00 73 1019.9
20260507035645 72 175 0.0 0.0 0.00 0.00 0.00 73 1019.6
20260507035141 73 165 0.0 0.0 0.00 0.00 0.00 73 1019.9
20260507034638 73 164 0.0 0.0 0.00 0.00 0.00 73 1019.9
20260507034136 73 165 0.0 0.0 0.00 0.00 0.00 73 1019.8
20260507033634 73 164 0.0 0.0 0.00 0.00 0.00 73 1019.9
20260507033131 72 161 1.0 1.0 0.00 0.00 0.00 74 1019.9
20260507032629 72 171 0.0 0.0 0.00 0.00 0.00 74 1019.6
20260507032124 72 176 0.0 0.0 0.00 0.00 0.00 75 1019.7
20260507031621 72 167 0.0 1.0 0.00 0.00 0.00 76 1019.6
20260507031118 71 175 0.0 0.0 0.00 0.00 0.00 78 1019.6
20260507030615 71 171 0.0 0.0 0.00 0.00 0.00 80 1020.0
20260507030113 71 171 0.0 0.0 0.00 0.00 0.00 80 1019.9
20260507025609 71 171 0.0 0.0 0.00 0.00 0.00 79 1019.9
20260507025106 71 171 0.0 0.0 0.00 0.00 0.00 79 1019.6
20260507024604 71 171 0.0 0.0 0.00 0.00 0.00 77 1019.7
20260507024101 72 171 0.0 0.0 0.00 0.00 0.00 77 1019.9
20260507023556 72 171 0.0 0.0 0.00 0.00 0.00 76 1019.9
20260507023054 73 171 0.0 0.0 0.00 0.00 0.00 75 1020.0
20260507022551 73 171 0.0 0.0 0.00 0.00 0.00 75 1019.4
20260507022041 74 170 0.0 0.0 0.00 0.00 0.00 75 1019.8
20260507021537 75 170 0.0 0.0 0.00 0.00 0.00 73 1019.7
20260507021034 75 171 0.0 0.0 0.00 0.00 0.00 73 1019.7
20260507020532 75 164 0.0 0.0 0.00 0.00 0.00 73 1019.8
20260507020028 75 172 0.0 1.0 0.00 0.00 0.00 73 1019.7
20260507015526 75 160 1.0 2.0 0.00 0.00 0.00 72 1019.5
20260507015024 75 168 0.0 0.0 0.00 0.00 0.00 73 1019.6
20260507014520 75 174 1.0 1.0 0.00 0.00 0.00 73 1019.5
20260507014016 75 164 0.0 0.0 0.00 0.00 0.00 73 1019.6
20260507013512 75 154 0.0 0.0 0.00 0.00 0.00 73 1019.4
20260507013009 76 159 0.0 0.0 0.00 0.00 0.00 73 1019.2
20260507012506 76 155 0.0 0.0 0.00 0.00 0.00 73 1019.3
20260507012003 76 150 0.0 0.0 0.00 0.00 0.00 73 1019.3
20260507011500 76 162 0.0 0.0 0.00 0.00 0.00 73 1019.0
20260507010955 76 156 0.0 0.0 0.00 0.00 0.00 73 1019.1
20260507010450 76 164 0.0 0.0 0.00 0.00 0.00 73 1019.0
20260507005947 76 161 0.0 0.0 0.00 0.00 0.00 73 1019.0
20260507005444 76 177 0.0 0.0 0.00 0.00 0.00 73 1018.9
20260507004941 77 106 0.0 1.0 0.00 0.00 0.00 73 1019.1
20260507004437 77 168 0.0 0.0 0.00 0.00 0.00 72 1018.9
20260507003935 77 160 0.0 0.0 0.00 0.00 0.00 73 1018.9
20260507003430 77 157 0.0 0.0 0.00 0.00 0.00 73 1019.1
20260507002925 77 164 0.0 0.0 0.00 0.00 0.00 72 1018.7
20260507002422 77 166 0.0 0.0 0.00 0.00 0.00 73 1018.6
20260507001914 77 182 0.0 0.0 0.00 0.00 0.00 72 1018.9
20260507001411 78 131 0.0 0.0 0.00 0.00 0.00 72 1018.9
20260507000908 78 173 0.0 0.0 0.00 0.00 0.00 72 1018.6
20260507000405 78 155 0.0 0.0 0.00 0.00 0.00 72 1018.7
20260506235859 78 133 2.0 2.0 0.00 0.00 0.00 70 1018.8
20260506235357 79 151 0.0 0.0 0.00 0.00 0.00 68 1018.9
20260506234852 79 159 0.0 0.0 0.00 0.00 0.00 69 1018.7
20260506234350 80 160 0.0 0.0 0.00 0.00 0.00 68 1018.7
20260506233848 80 168 0.0 1.0 0.00 0.00 0.00 67 1018.4
20260506233343 80 162 0.0 0.0 0.00 0.00 0.00 66 1018.4
20260506232841 81 143 1.0 1.0 0.00 0.00 0.00 64 1018.5
20260506232336 81 167 0.0 1.0 0.00 0.00 0.00 65 1018.9
20260506231833 82 1 3.0 3.0 0.00 0.00 0.00 63 1018.9
20260506231331 83 167 0.0 0.0 0.00 0.00 0.00 63 1018.8
20260506230828 83 173 0.0 0.0 0.00 0.00 0.00 61 1018.9
20260506230325 84 151 0.0 0.0 0.00 0.00 0.00 61 1018.7
20260506225820 84 176 0.0 0.0 0.00 0.00 0.00 61 1018.8
20260506225318 84 164 1.0 1.0 0.00 0.00 0.00 59 1018.6
20260506224814 84 135 0.0 1.0 0.00 0.00 0.00 60 1018.5
20260506224312 84 162 0.0 0.0 0.00 0.00 0.00 60 1018.7
20260506223808 83 169 0.0 0.0 0.00 0.00 0.00 61 1018.3
20260506223303 83 154 1.0 1.0 0.00 0.00 0.00 60 1018.7
20260506222800 84 78 1.0 1.0 0.00 0.00 0.00 61 1018.9
20260506222255 85 143 1.0 2.0 0.00 0.00 0.00 62 1018.6
20260506221748 86 153 1.0 1.0 0.00 0.00 0.00 60 1018.9
20260506221245 85 133 1.0 1.0 0.00 0.00 0.00 61 1018.6
20260506220743 86 158 0.0 0.0 0.00 0.00 0.00 61 1018.9
20260506220232 86 164 1.0 1.0 0.00 0.00 0.00 60 1019.0
20260506215729 86 112 1.0 1.0 0.00 0.00 0.00 59 1018.9
20260506215224 86 133 0.0 1.0 0.00 0.00 0.00 58 1019.0
20260506214721 87 165 1.0 1.0 0.00 0.00 0.00 57 1019.0
20260506214218 87 206 1.0 2.0 0.00 0.00 0.00 59 1019.0
20260506213716 86 108 1.0 2.0 0.00 0.00 0.00 58 1019.0
20260506213213 86 138 0.0 1.0 0.00 0.00 0.00 60 1019.1
20260506212710 86 107 2.0 2.0 0.00 0.00 0.00 59 1019.0
20260506212206 86 67 3.0 5.0 0.00 0.00 0.00 62 1018.9
20260506211701 85 129 1.0 2.0 0.00 0.00 0.00 64 1019.2
20260506211158 86 149 0.0 0.0 0.00 0.00 0.00 63 1019.3
20260506210655 86 166 1.0 1.0 0.00 0.00 0.00 65 1019.1
20260506210151 87 166 2.0 2.0 0.00 0.00 0.00 65 1019.2
20260506205649 87 124 0.0 1.0 0.00 0.00 0.00 64 1019.1
20260506205144 87 162 1.0 1.0 0.00 0.00 0.00 65 1018.9
20260506204642 86 130 0.0 0.0 0.00 0.00 0.00 66 1019.1
20260506204138 86 170 1.0 1.0 0.00 0.00 0.00 65 1019.0
20260506203637 86 167 1.0 1.0 0.00 0.00 0.00 67 1019.3
20260506203133 86 144 2.0 2.0 0.00 0.00 0.00 64 1019.2
20260506202631 86 78 2.0 2.0 0.00 0.00 0.00 66 1019.4
20260506202127 87 22 2.0 2.0 0.00 0.00 0.00 64 1019.1
20260506201624 88 141 3.0 5.0 0.00 0.00 0.00 65 1019.1
20260506201121 87 166 3.0 3.0 0.00 0.00 0.00 66 1019.0
20260506200617 86 170 3.0 6.0 0.00 0.00 0.00 65 1019.1
20260506200114 87 155 1.0 1.0 0.00 0.00 0.00 64 1019.3
20260506195611 88 171 2.0 3.0 0.00 0.00 0.00 64 1019.3
20260506195107 89 69 2.0 2.0 0.00 0.00 0.00 62 1019.4
20260506194605 87 110 1.0 2.0 0.00 0.00 0.00 65 1019.4
20260506194100 88 145 1.0 2.0 0.00 0.00 0.00 64 1019.5
20260506193559 88 167 1.0 1.0 0.00 0.00 0.00 66 1019.6
20260506193056 89 182 1.0 1.0 0.00 0.00 0.00 64 1019.3
20260506192552 87 142 1.0 1.0 0.00 0.00 0.00 68 1019.5
20260506192048 88 134 2.0 2.0 0.00 0.00 0.00 65 1019.7
20260506191545 88 87 1.0 2.0 0.00 0.00 0.00 67 1019.8
20260506191041 87 148 3.0 5.0 0.00 0.00 0.00 66 1019.4
20260506190538 89 172 0.0 0.0 0.00 0.00 0.00 64 1019.8
20260506190035 88 161 1.0 1.0 0.00 0.00 0.00 64 1019.7
20260506185532 88 136 1.0 2.0 0.00 0.00 0.00 65 1019.8
20260506185029 88 141 3.0 3.0 0.00 0.00 0.00 64 1020.1
20260506184526 87 151 0.0 1.0 0.00 0.00 0.00 67 1020.2
20260506184024 88 98 1.0 2.0 0.00 0.00 0.00 63 1020.3
20260506183519 88 102 1.0 1.0 0.00 0.00 0.00 64 1019.9
20260506183016 88 99 3.0 3.0 0.00 0.00 0.00 64 1020.1
20260506182514 88 72 1.0 1.0 0.00 0.00 0.00 66 1020.1
20260506182010 89 201 0.0 0.0 0.00 0.00 0.00 63 1020.1
20260506181508 88 164 1.0 1.0 0.00 0.00 0.00 66 1020.3
20260506181005 89 106 0.0 0.0 0.00 0.00 0.00 54 1020.2
20260506180502 89 173 0.0 0.0 0.00 0.00 0.00 53 1020.4
20260506175958 89 146 0.0 0.0 0.00 0.00 0.00 55 1020.4
20260506175455 88 200 1.0 2.0 0.00 0.00 0.00 55 1020.2
20260506174952 88 208 0.0 0.0 0.00 0.00 0.00 56 1020.7
20260506174450 88 201 0.0 0.0 0.00 0.00 0.00 55 1020.4
20260506173946 89 140 0.0 0.0 0.00 0.00 0.00 54 1020.5
20260506173443 88 177 3.0 3.0 0.00 0.00 0.00 54 1020.7
20260506172940 87 163 0.0 0.0 0.00 0.00 0.00 55 1020.7
20260506172437 87 142 2.0 2.0 0.00 0.00 0.00 55 1020.6
20260506171934 87 164 1.0 2.0 0.00 0.00 0.00 57 1020.6
20260506171431 87 189 2.0 2.0 0.00 0.00 0.00 56 1020.8
20260506170924 88 175 0.0 0.0 0.00 0.00 0.00 54 1020.8
20260506170420 87 173 0.0 0.0 0.00 0.00 0.00 59 1020.9
20260506165918 87 214 3.0 3.0 0.00 0.00 0.00 58 1020.9
20260506165416 87 251 2.0 5.0 0.00 0.00 0.00 57 1021.0
20260506164912 87 211 3.0 3.0 0.00 0.00 0.00 56 1021.0
20260506164409 86 124 0.0 1.0 0.00 0.00 0.00 56 1021.2
20260506163907 86 225 3.0 5.0 0.00 0.00 0.00 57 1021.1
20260506163401 86 241 3.0 3.0 0.00 0.00 0.00 58 1021.1
20260506162856 86 172 0.0 1.0 0.00 0.00 0.00 57 1021.4
20260506162355 86 187 2.0 2.0 0.00 0.00 0.00 57 1021.3
20260506161852 86 168 1.0 1.0 0.00 0.00 0.00 58 1021.4
20260506161349 86 171 2.0 2.0 0.00 0.00 0.00 58 1021.0
20260506160847 87 153 2.0 3.0 0.00 0.00 0.00 58 1021.5
20260506160343 86 196 1.0 1.0 0.00 0.00 0.00 58 1021.5
20260506155842 85 169 1.0 1.0 0.00 0.00 0.00 58 1021.4
20260506155339 84 185 0.0 1.0 0.00 0.00 0.00 59 1021.3
20260506153456 83 158 0.0 0.0 0.00 0.00 0.00 62 1021.5
20260506152953 84 182 1.0 1.0 0.00 0.00 0.00 62 1021.3
20260506152450 84 163 1.0 2.0 0.00 0.00 0.00 60 1021.4
20260506151948 83 201 1.0 2.0 0.00 0.00 0.00 62 1021.4
20260506151445 84 159 0.0 0.0 0.00 0.00 0.00 63 1021.5
20260506150943 82 203 0.0 1.0 0.00 0.00 0.00 63 1021.4
20260506150438 83 163 0.0 0.0 0.00 0.00 0.00 65 1021.1
20260506145936 82 169 1.0 1.0 0.00 0.00 0.00 65 1021.4
20260506145432 82 185 3.0 3.0 0.00 0.00 0.00 65 1021.2
20260506144930 82 183 2.0 5.0 0.00 0.00 0.00 65 1021.3
20260506144426 81 160 3.0 3.0 0.00 0.00 0.00 65 1021.2
20260506143925 81 172 1.0 1.0 0.00 0.00 0.00 67 1021.2
20260506143421 80 183 1.0 2.0 0.00 0.00 0.00 66 1021.0
20260506142920 81 189 2.0 3.0 0.00 0.00 0.00 65 1021.1
20260506142417 80 160 0.0 1.0 0.00 0.00 0.00 69 1021.4
20260506141915 80 178 1.0 2.0 0.00 0.00 0.00 69 1021.4
20260506141413 81 163 0.0 0.0 0.00 0.00 0.00 69 1021.3
20260506140911 79 168 0.0 0.0 0.00 0.00 0.00 70 1021.3
20260506140408 79 169 0.0 0.0 0.00 0.00 0.00 71 1021.1
20260506135905 79 173 0.0 0.0 0.00 0.00 0.00 73 1021.1
20260506135402 79 165 0.0 0.0 0.00 0.00 0.00 73 1021.1
20260506134858 78 149 0.0 0.0 0.00 0.00 0.00 75 1020.9
20260506134354 78 153 0.0 0.0 0.00 0.00 0.00 76 1021.2
20260506133851 78 171 0.0 0.0 0.00 0.00 0.00 76 1021.4
20260506133348 77 178 1.0 1.0 0.00 0.00 0.00 76 1021.1
20260506132844 77 171 0.0 1.0 0.00 0.00 0.00 76 1021.2
20260506132342 77 163 0.0 0.0 0.00 0.00 0.00 76 1021.0
20260506131840 76 172 0.0 0.0 0.00 0.00 0.00 76 1020.9
20260506131336 77 157 0.0 0.0 0.00 0.00 0.00 76 1021.1
20260506130833 76 163 0.0 0.0 0.00 0.00 0.00 76 1021.0
20260506130329 75 167 0.0 0.0 0.00 0.00 0.00 77 1021.0
20260506125827 75 177 0.0 0.0 0.00 0.00 0.00 78 1020.8
20260506125325 74 165 0.0 0.0 0.00 0.00 0.00 78 1020.8
20260506124824 73 161 0.0 0.0 0.00 0.00 0.00 80 1020.8
20260506124320 72 165 0.0 0.0 0.00 0.00 0.00 80 1020.9
20260506123818 71 167 0.0 0.0 0.00 0.00 0.00 81 1020.8
20260506123316 71 164 0.0 0.0 0.00 0.00 0.00 83 1021.0
20260506122813 69 166 0.0 0.0 0.00 0.00 0.00 84 1020.9
20260506122310 69 170 0.0 0.0 0.00 0.00 0.00 85 1021.1
20260506121808 68 169 0.0 0.0 0.00 0.00 0.00 87 1021.0
20260506121304 67 176 0.0 0.0 0.00 0.00 0.00 88 1020.8
20260506120802 66 164 0.0 0.0 0.00 0.00 0.00 90 1020.7
20260506120300 65 150 0.0 0.0 0.00 0.00 0.00 91 1020.8
20260506115757 64 150 0.0 0.0 0.00 0.00 0.00 92 1020.5
20260506115255 64 150 0.0 0.0 0.00 0.00 0.00 93 1020.4
20260506114753 63 150 0.0 0.0 0.00 0.00 0.00 93 1020.7
20260506114250 62 151 0.0 0.0 0.00 0.00 0.00 94 1020.4
20260506113748 62 151 0.0 0.0 0.00 0.00 0.00 94 1020.3
20260506113246 61 151 0.0 0.0 0.00 0.00 0.00 94 1020.3
20260506112742 61 151 0.0 0.0 0.00 0.00 0.00 95 1020.3
20260506112240 60 151 0.0 0.0 0.00 0.00 0.00 95 1020.3
20260506111737 60 151 0.0 0.0 0.00 0.00 0.00 95 1020.4
20260506111235 60 151 0.0 0.0 0.00 0.00 0.00 95 1020.5
20260506110731 60 151 0.0 0.0 0.00 0.00 0.00 95 1020.3
20260506110229 59 151 0.0 0.0 0.00 0.00 0.00 95 1020.2
20260506105725 59 151 0.0 0.0 0.00 0.00 0.00 95 1020.1
20260506105223 59 151 0.0 0.0 0.00 0.00 0.00 95 1020.1
20260506104721 59 151 0.0 0.0 0.00 0.00 0.00 94 1020.0
20260506104218 59 151 0.0 0.0 0.00 0.00 0.00 94 1020.1
20260506103715 59 151 0.0 0.0 0.00 0.00 0.00 94 1020.0
20260506103212 60 151 0.0 0.0 0.00 0.00 0.00 94 1019.8
20260506102710 60 151 0.0 0.0 0.00 0.00 0.00 94 1019.9
20260506102208 59 151 0.0 0.0 0.00 0.00 0.00 94 1020.0
20260506101704 59 151 0.0 0.0 0.00 0.00 0.00 94 1019.8
20260506101200 59 151 0.0 0.0 0.00 0.00 0.00 94 1019.8
20260506100659 59 151 0.0 0.0 0.00 0.00 0.00 94 1020.1
20260506100156 59 151 0.0 0.0 0.00 0.00 0.00 94 1020.0
20260506095655 59 151 0.0 0.0 0.00 0.00 0.00 94 1020.0
20260506095151 59 151 0.0 0.0 0.00 0.00 0.00 94 1019.8
20260506094649 59 151 0.0 0.0 0.00 0.00 0.00 94 1019.7
20260506094146 59 151 0.0 0.0 0.00 0.00 0.00 94 1019.8
20260506093645 59 151 0.0 0.0 0.00 0.00 0.00 94 1019.7
20260506093142 59 151 0.0 0.0 0.00 0.00 0.00 94 1019.7
20260506092639 59 151 0.0 0.0 0.00 0.00 0.00 94 1019.8
20260506092136 59 151 0.0 0.0 0.00 0.00 0.00 94 1019.7
20260506091634 59 151 0.0 0.0 0.00 0.00 0.00 94 1020.0
20260506091131 59 151 0.0 0.0 0.00 0.00 0.00 94 1019.6
20260506090630 59 151 0.0 0.0 0.00 0.00 0.00 94 1019.6
20260506090125 59 151 0.0 0.0 0.00 0.00 0.00 94 1019.5
20260506085622 59 151 0.0 0.0 0.00 0.00 0.00 93 1019.9
20260506085119 59 151 0.0 0.0 0.00 0.00 0.00 93 1019.6
20260506084615 59 151 0.0 0.0 0.00 0.00 0.00 93 1019.5
20260506084112 59 151 0.0 0.0 0.00 0.00 0.00 93 1019.7
20260506083609 59 151 0.0 0.0 0.00 0.00 0.00 93 1019.5
20260506083107 59 151 0.0 0.0 0.00 0.00 0.00 93 1019.1
20260506082603 59 151 0.0 0.0 0.00 0.00 0.00 93 1019.5
20260506082059 59 151 0.0 0.0 0.00 0.00 0.00 93 1019.5
20260506081557 59 151 0.0 0.0 0.00 0.00 0.00 93 1019.5
20260506081054 59 151 0.0 0.0 0.00 0.00 0.00 93 1019.7
20260506080552 59 151 0.0 0.0 0.00 0.00 0.00 93 1019.6
20260506073032 59 151 0.0 0.0 0.00 0.00 0.00 93 1019.3
20260506072530 60 151 0.0 0.0 0.00 0.00 0.00 93 1019.5
20260506072027 60 151 0.0 0.0 0.00 0.00 0.00 92 1019.8
20260506071525 60 151 0.0 0.0 0.00 0.00 0.00 92 1019.6
20260506071022 60 151 0.0 0.0 0.00 0.00 0.00 92 1019.8
20260506070519 60 151 0.0 0.0 0.00 0.00 0.00 92 1019.9
20260506062457 60 151 0.0 0.0 0.00 0.00 0.00 91 1020.0
20260506061953 61 151 0.0 0.0 0.00 0.00 0.00 91 1020.1
20260506061449 61 151 0.0 0.0 0.00 0.00 0.00 91 1020.1
20260506060947 61 151 0.0 0.0 0.00 0.00 0.00 91 1020.2
20260506060445 61 151 0.0 0.0 0.00 0.00 0.00 90 1020.1